EW6171 Weather Reports


Display with metric or nautical units.
time (UTC)temp
F
wind
direction
speed
MPH
gust
MPH
rain 1hr
in
rain 24hr
in
rain mn
in
humidity
%
barometer
mb
20220810085758 79 196 0.0 0.0 0.00 0.13 0.00 84 1014.4
20220810085247 79 196 0.0 2.0 0.00 0.13 0.00 84 1014.4
20220810084739 79 196 0.0 2.0 0.00 0.13 0.00 84 1014.4
20220810084236 79 196 0.0 2.0 0.00 0.13 0.00 84 1014.3
20220810083959 79 196 1.0 4.0 0.00 0.13 0.00 84 1014.3
20220810083225 80 196 1.0 4.0 0.00 0.13 0.00 84 1014.2
20220810082720 80 196 0.0 3.0 0.00 0.13 0.00 84 1014.2
20220810082215 80 196 0.0 0.0 0.00 0.13 0.00 84 1014.3
20220810081437 80 205 2.0 8.0 0.00 0.13 0.00 84 1014.3
20220810080200 80 217 4.0 9.0 0.00 0.13 0.00 84 1014.1
20220810075700 81 204 5.0 9.0 0.00 0.13 0.00 84 1014.0
20220810075158 81 200 5.0 8.0 0.00 0.13 0.00 84 1013.9
20220810074656 80 192 4.0 7.0 0.00 0.13 0.00 84 1013.9
20220810073141 81 194 3.0 5.0 0.00 0.13 0.00 84 1014.0
20220810072637 81 194 2.0 6.0 0.00 0.13 0.00 84 1014.0
20220810072134 81 172 2.0 5.0 0.00 0.13 0.00 84 1014.1
20220810071629 80 181 2.0 6.0 0.00 0.13 0.00 84 1014.1
20220810070630 81 177 2.0 5.0 0.00 0.13 0.00 84 1014.1
20220810065628 81 192 2.0 4.0 0.00 0.13 0.00 84 1014.0
20220810064624 81 198 2.0 5.0 0.00 0.13 0.00 84 1013.9
20220810064124 81 189 3.0 6.0 0.00 0.13 0.00 84 1013.9
20220810063624 82 196 4.0 7.0 0.00 0.13 0.00 84 1013.8
20220810063356 82 196 4.0 7.0 0.00 0.13 0.00 84 1013.8
20220810062841 82 196 3.0 7.0 0.00 0.13 0.00 84 1013.9
20220810062104 82 185 3.0 6.0 0.00 0.13 0.00 84 1013.9
20220810061557 82 178 3.0 6.0 0.00 0.13 0.00 84 1014.0
20220810061046 82 190 3.0 6.0 0.00 0.13 0.00 84 1014.0
20220810060548 82 194 3.0 6.0 0.00 0.13 0.00 84 1013.9
20220810055523 82 184 3.0 7.0 0.00 0.13 0.00 84 1013.9
20220810055011 83 181 3.0 7.0 0.00 0.13 0.00 84 1013.9
20220810054504 83 192 5.0 11.0 0.00 0.13 0.00 84 1013.7
20220810053951 83 181 6.0 11.0 0.00 0.13 0.00 84 1013.7
20220810053441 82 164 4.0 11.0 0.00 0.13 0.00 84 1013.8
20220810052933 82 160 4.0 7.0 0.00 0.13 0.00 84 1013.9
20220810052646 82 179 3.0 7.0 0.00 0.13 0.00 83 1013.9
20220810051859 82 157 3.0 5.0 0.00 0.13 0.00 83 1013.9
20220810051348 82 143 3.0 6.0 0.00 0.13 0.00 83 1014.0
20220810050602 83 183 5.0 8.0 0.00 0.13 0.00 83 1014.0
20220810050054 83 165 5.0 10.0 0.00 0.13 0.13 83 1014.1
20220810045544 83 166 5.0 10.0 0.00 0.13 0.13 83 1014.1
20220810044252 83 142 5.0 9.0 0.00 0.13 0.13 83 1014.2
20220810043743 83 149 6.0 10.0 0.00 0.13 0.13 83 1014.2
20220810042445 83 154 5.0 9.0 0.00 0.13 0.13 83 1014.3
20220810041935 83 132 5.0 9.0 0.00 0.13 0.13 83 1014.2
20220810041153 83 147 4.0 9.0 0.00 0.13 0.13 83 1014.3
20220810040915 83 151 4.0 8.0 0.00 0.13 0.13 83 1014.3
20220810040133 83 136 4.0 9.0 0.00 0.13 0.13 83 1014.3
20220810035623 83 126 5.0 9.0 0.00 0.13 0.13 83 1014.3
20220810035112 83 140 5.0 9.0 0.00 0.13 0.13 83 1014.3
20220810034604 83 133 5.0 11.0 0.00 0.13 0.13 83 1014.1
20220810033544 83 129 5.0 9.0 0.00 0.13 0.13 83 1014.1
20220810033032 83 138 6.0 9.0 0.00 0.13 0.13 83 1014.0
20220810032754 83 126 6.0 9.0 0.00 0.13 0.13 83 1013.9
20220810032245 83 146 5.0 9.0 0.00 0.13 0.13 83 1013.8
20220810031506 83 130 5.0 10.0 0.00 0.13 0.13 83 1013.8
20220810030454 83 127 5.0 10.0 0.00 0.13 0.13 83 1013.6
20220810030213 83 144 5.0 10.0 0.00 0.13 0.13 82 1013.5
20220810025433 83 136 5.0 10.0 0.00 0.13 0.13 82 1013.4
20220810024933 83 141 5.0 10.0 0.00 0.13 0.13 82 1013.2
20220810024654 83 155 5.0 9.0 0.00 0.13 0.13 82 1013.1
20220810023913 83 145 5.0 9.0 0.00 0.13 0.13 82 1013.0
20220810023416 83 142 4.0 8.0 0.00 0.13 0.13 81 1013.0
20220810022356 84 134 6.0 14.0 0.00 0.13 0.13 81 1012.9
20220810022121 84 157 6.0 14.0 0.00 0.13 0.13 81 1012.8
20220810021607 84 141 6.0 11.0 0.00 0.13 0.13 81 1012.7
20220810015016 84 139 7.0 12.0 0.00 0.13 0.13 80 1012.7
20220810014236 84 143 8.0 12.0 0.00 0.13 0.13 80 1012.6
20220810013725 84 113 8.0 12.0 0.00 0.13 0.13 80 1012.5
20220810013216 85 145 8.0 12.0 0.00 0.13 0.13 80 1012.6
20220810012936 85 133 8.0 15.0 0.00 0.13 0.13 80 1012.6
20220810012155 85 163 9.0 13.0 0.00 0.13 0.13 80 1012.4
20220810011639 85 148 10.0 16.0 0.00 0.13 0.13 80 1012.4
20220810011130 85 158 10.0 15.0 0.00 0.13 0.13 80 1012.4
20220810010629 85 150 9.0 15.0 0.00 0.13 0.13 79 1012.3
20220810010113 85 154 10.0 16.0 0.00 0.13 0.13 80 1012.4
20220810005603 86 152 10.0 16.0 0.00 0.13 0.13 79 1012.4
20220810005324 86 149 11.0 17.0 0.00 0.13 0.13 79 1012.2
20220810004034 86 164 12.0 17.0 0.00 0.13 0.13 78 1012.3
20220810003523 86 131 12.0 17.0 0.00 0.13 0.13 78 1012.3
20220810003015 87 136 12.0 18.0 0.00 0.13 0.13 77 1012.2
20220810002725 87 150 13.0 18.0 0.00 0.13 0.13 77 1012.3
20220810002218 87 154 14.0 19.0 0.00 0.13 0.13 77 1012.2
20220810000650 88 162 14.0 18.0 0.00 0.13 0.13 76 1012.2
20220810000142 88 153 13.0 18.0 0.00 0.13 0.13 74 1012.2
20220809235404 88 151 12.0 18.0 0.00 0.13 0.13 74 1012.2
20220809234859 88 162 13.0 19.0 0.00 0.13 0.13 74 1012.1
20220809234348 88 171 14.0 19.0 0.00 0.13 0.13 74 1012.2
20220809233338 89 154 15.0 21.0 0.00 0.13 0.13 72 1012.1
20220809232834 89 156 15.0 21.0 0.00 0.13 0.13 72 1012.1
20220809232327 89 156 15.0 21.0 0.00 0.13 0.13 71 1012.1
20220809232054 89 152 15.0 20.0 0.00 0.13 0.13 72 1012.2
20220809231550 89 145 15.0 19.0 0.00 0.13 0.13 71 1012.3
20220809230311 90 151 15.0 21.0 0.00 0.13 0.13 71 1012.4
20220809230032 90 156 14.0 20.0 0.00 0.13 0.13 71 1012.4
20220809225257 91 151 14.0 21.0 0.00 0.13 0.13 70 1012.4
20220809223747 90 150 16.0 21.0 0.00 0.13 0.13 68 1012.4
20220809223516 91 154 16.0 21.0 0.00 0.13 0.13 70 1012.3
20220809223013 91 156 17.0 25.0 0.00 0.13 0.13 69 1012.2
20220809222000 91 155 16.0 21.0 0.00 0.13 0.13 69 1012.1
20220809221222 91 156 16.0 22.0 0.00 0.13 0.13 69 1012.0
20220809220721 91 160 15.0 22.0 0.00 0.13 0.13 69 1012.0
20220809220445 91 161 15.0 21.0 0.00 0.13 0.13 69 1012.0
20220809215708 92 160 15.0 21.0 0.00 0.13 0.13 69 1012.0
20220809215204 92 160 15.0 21.0 0.00 0.13 0.13 68 1012.1
20220809214707 92 145 15.0 21.0 0.00 0.13 0.13 68 1012.1
20220809214159 92 174 15.0 19.0 0.00 0.13 0.13 67 1012.1
20220809213654 92 156 14.0 18.0 0.00 0.13 0.13 66 1012.1
20220809213420 92 160 15.0 20.0 0.00 0.13 0.13 67 1012.2
20220809212638 92 179 15.0 19.0 0.00 0.13 0.13 66 1012.3
20220809212408 92 171 14.0 19.0 0.00 0.13 0.13 67 1012.4
20220809211857 92 145 13.0 19.0 0.00 0.13 0.13 67 1012.5
20220809211116 93 152 13.0 19.0 0.00 0.13 0.13 68 1012.5
20220809210328 92 151 14.0 20.0 0.00 0.13 0.13 68 1012.7
20220809205821 92 150 14.0 20.0 0.00 0.13 0.13 67 1012.8
20220809205037 93 145 14.0 19.0 0.00 0.13 0.13 68 1012.8
20220809204529 93 158 14.0 19.0 0.00 0.13 0.13 67 1012.8
20220809203508 93 130 14.0 19.0 0.00 0.13 0.13 65 1013.1
20220809203228 93 170 13.0 18.0 0.00 0.13 0.13 64 1013.2
20220809202458 93 175 12.0 18.0 0.00 0.13 0.13 65 1013.2
20220809201945 93 143 12.0 17.0 0.00 0.13 0.13 65 1013.2
20220809201436 93 140 13.0 19.0 0.00 0.13 0.13 65 1013.3
20220809200925 93 183 13.0 19.0 0.00 0.13 0.13 66 1013.3
20220809200416 93 146 12.0 17.0 0.00 0.13 0.13 67 1013.3
20220809195906 93 176 12.0 17.0 0.00 0.13 0.13 67 1013.5
20220809195351 93 150 12.0 17.0 0.00 0.13 0.13 66 1013.6
20220809194840 93 152 12.0 16.0 0.00 0.13 0.13 66 1013.6
20220809194330 93 145 12.0 17.0 0.00 0.13 0.13 67 1013.7
20220809193819 92 167 11.0 17.0 0.00 0.13 0.13 68 1013.7
20220809193310 92 145 11.0 18.0 0.00 0.13 0.13 69 1013.8
20220809192759 92 129 12.0 18.0 0.00 0.13 0.13 68 1013.9
20220809192250 92 150 12.0 19.0 0.00 0.13 0.13 68 1013.9
20220809191739 92 175 11.0 19.0 0.00 0.13 0.13 69 1014.0
20220809191227 92 182 10.0 16.0 0.00 0.13 0.13 70 1014.0
20220809190717 92 151 9.0 16.0 0.00 0.13 0.13 71 1014.0
20220809190208 92 183 8.0 14.0 0.00 0.13 0.13 71 1014.1
20220809185658 91 182 8.0 14.0 0.00 0.13 0.13 72 1014.3
20220809185148 91 179 8.0 14.0 0.00 0.13 0.13 72 1014.3
20220809184630 91 181 8.0 13.0 0.00 0.13 0.13 74 1014.2
20220809184119 91 160 8.0 12.0 0.00 0.13 0.13 73 1014.3
20220809183610 91 168 9.0 14.0 0.00 0.13 0.13 74 1014.5
20220809183101 91 154 7.0 14.0 0.00 0.13 0.13 75 1014.5
20220809182549 90 144 5.0 10.0 0.00 0.13 0.13 77 1014.6
20220809182041 90 166 6.0 13.0 0.00 0.13 0.13 77 1014.7
20220809181529 90 227 7.0 13.0 0.00 0.13 0.13 78 1014.8
20220809181032 89 197 4.0 10.0 0.00 0.13 0.13 78 1014.8
20220809180507 89 250 5.0 10.0 0.00 0.13 0.13 80 1015.0
20220809175959 88 219 6.0 10.0 0.00 0.13 0.13 80 1015.0
20220809175448 87 146 5.0 10.0 0.00 0.13 0.13 82 1015.1
20220809174939 87 171 3.0 10.0 0.00 0.13 0.13 83 1015.2
20220809174427 86 117 1.0 4.0 0.00 0.13 0.13 84 1015.3
20220809173917 85 138 1.0 4.0 0.00 0.13 0.13 84 1015.4
20220809173406 84 90 2.0 5.0 0.00 0.13 0.13 84 1015.5
20220809172857 84 54 3.0 5.0 0.00 0.13 0.13 84 1015.4
20220809172349 83 78 2.0 5.0 0.00 0.13 0.13 84 1015.5
20220809171838 82 67 2.0 3.0 0.00 0.13 0.13 84 1015.6
20220809171326 81 61 2.0 4.0 0.01 0.13 0.13 84 1015.7
20220809170815 81 15 3.0 10.0 0.01 0.13 0.13 84 1015.8
20220809170304 80 352 4.0 10.0 0.01 0.13 0.13 84 1015.9
20220809165755 80 55 3.0 7.0 0.01 0.13 0.13 84 1016.0
20220809165244 79 330 2.0 6.0 0.03 0.13 0.13 84 1015.9
20220809164735 79 358 3.0 6.0 0.04 0.13 0.13 84 1016.0
20220809164224 79 52 3.0 6.0 0.08 0.13 0.13 84 1015.9
20220809163715 79 52 4.0 13.0 0.08 0.13 0.13 84 1016.0
20220809163206 79 47 5.0 13.0 0.08 0.13 0.13 84 1016.1
20220809162707 80 354 3.0 8.0 0.08 0.13 0.13 84 1016.1
20220809162156 80 34 2.0 7.0 0.08 0.13 0.13 84 1016.0
20220809161647 80 15 2.0 4.0 0.08 0.13 0.13 84 1016.0
20220809160627 82 48 1.0 5.0 0.07 0.12 0.12 84 1016.3
20220809155055 83 221 4.0 8.0 0.05 0.10 0.10 84 1015.8
20220809154545 83 213 5.0 10.0 0.03 0.08 0.08 84 1015.8
20220809154037 84 230 4.0 10.0 0.00 0.05 0.05 84 1015.7
20220809153528 84 244 3.0 8.0 0.00 0.05 0.05 84 1015.6
20220809153009 85 214 3.0 8.0 0.00 0.05 0.05 84 1015.5
20220809152500 85 179 3.0 5.0 0.00 0.05 0.05 84 1015.6
20220809151959 85 143 3.0 6.0 0.00 0.05 0.05 84 1015.5
20220809151450 85 200 3.0 6.0 0.00 0.05 0.05 84 1015.4
20220809150941 85 190 1.0 6.0 0.00 0.05 0.05 84 1015.5
20220809150431 85 213 1.0 5.0 0.00 0.05 0.05 84 1015.4
20220809145923 85 223 2.0 5.0 0.01 0.05 0.05 84 1015.3
20220809145420 84 223 2.0 5.0 0.02 0.05 0.05 84 1015.4
20220809144914 84 183 2.0 5.0 0.04 0.05 0.05 84 1015.4
20220809144406 84 177 2.0 4.0 0.04 0.05 0.05 84 1015.4
20220809143858 84 110 1.0 5.0 0.04 0.05 0.05 84 1015.3
20220809143352 83 163 0.0 4.0 0.04 0.05 0.05 84 1015.3
20220809142845 83 250 0.0 0.0 0.04 0.05 0.05 84 1015.2
20220809142338 83 250 0.0 0.0 0.04 0.05 0.05 84 1015.2
20220809141833 83 250 0.0 0.0 0.04 0.05 0.05 84 1015.1
20220809141324 83 250 0.0 2.0 0.04 0.05 0.05 84 1015.1
20220809140815 83 211 2.0 5.0 0.04 0.05 0.05 84 1015.0
20220809140308 84 211 5.0 12.0 0.04 0.05 0.05 84 1015.1
20220809135757 84 221 5.0 12.0 0.03 0.04 0.04 84 1015.1
20220809135251 85 193 2.0 6.0 0.00 0.01 0.01 84 1015.1
20220809134747 84 106 2.0 3.0 0.00 0.01 0.01 83 1015.0
20220809134241 84 55 2.0 4.0 0.00 0.01 0.01 82 1015.0
20220809133735 84 69 2.0 5.0 0.00 0.01 0.01 83 1015.0
20220809133231 83 79 2.0 5.0 0.00 0.01 0.01 81 1014.9
20220809132727 83 52 2.0 5.0 0.00 0.01 0.01 81 1014.9
20220809132220 83 59 0.0 5.0 0.00 0.01 0.01 79 1014.8
20220809131717 83 59 0.0 0.0 0.00 0.01 0.01 78 1014.7
20220809131201 83 5 0.0 0.0 0.00 0.01 0.01 76 1014.7
20220809130701 82 5 0.0 0.0 0.00 0.01 0.01 75 1014.7
20220809130154 82 5 0.0 0.0 0.00 0.01 0.01 75 1014.6
20220809125649 81 5 0.0 0.0 0.00 0.01 0.01 77 1014.6
20220809125146 81 5 0.0 0.0 0.00 0.01 0.01 77 1014.5
20220809124646 81 5 0.0 0.0 0.00 0.01 0.01 78 1014.4
20220809124141 81 5 0.0 0.0 0.00 0.01 0.01 78 1014.4
20220809123636 81 5 0.0 0.0 0.00 0.01 0.01 79 1014.4
20220809123133 80 63 0.0 3.0 0.00 0.01 0.01 80 1014.3
20220809122607 80 63 1.0 3.0 0.01 0.01 0.01 80 1014.2
20220809122108 80 64 2.0 3.0 0.01 0.01 0.01 81 1014.2
20220809121602 80 63 2.0 3.0 0.01 0.01 0.01 82 1014.1
20220809121057 80 78 1.0 3.0 0.01 0.01 0.01 83 1014.0
20220809120550 80 78 1.0 3.0 0.01 0.01 0.01 82 1013.9
20220809120042 80 71 1.0 3.0 0.01 0.01 0.01 82 1013.9
20220809115530 80 101 0.0 0.0 0.01 0.01 0.01 83 1013.8
20220809115022 80 101 0.0 0.0 0.01 0.01 0.01 83 1013.6
20220809114513 80 52 0.0 0.0 0.01 0.01 0.01 83 1013.7
20220809114010 79 52 1.0 5.0 0.01 0.01 0.01 83 1013.6
20220809113501 79 101 2.0 5.0 0.01 0.01 0.01 83 1013.6
20220809112951 79 90 1.0 5.0 0.00 0.00 0.00 83 1013.6
20220809112441 78 85 0.0 5.0 0.00 0.00 0.00 84 1013.5
20220809111932 78 79 0.0 0.0 0.00 0.00 0.00 84 1013.3
20220809111421 78 65 0.0 0.0 0.00 0.00 0.00 84 1013.3
20220809110910 79 109 0.0 0.0 0.00 0.00 0.00 84 1013.2
20220809110358 78 109 0.0 0.0 0.00 0.00 0.00 84 1013.1
20220809105849 78 109 0.0 0.0 0.00 0.00 0.00 84 1013.0
20220809105340 78 109 0.0 0.0 0.00 0.00 0.00 84 1013.1
20220809104829 78 109 0.0 0.0 0.00 0.00 0.00 84 1013.0
20220809104318 78 109 0.0 0.0 0.00 0.00 0.00 84 1013.1
20220809103809 78 109 0.0 0.0 0.00 0.00 0.00 84 1012.9
20220809103258 78 109 0.0 0.0 0.00 0.00 0.00 84 1012.9
20220809102746 78 109 0.0 0.0 0.00 0.00 0.00 84 1012.9
20220809102238 78 109 0.0 0.0 0.00 0.00 0.00 84 1012.9
20220809101724 78 109 0.0 0.0 0.00 0.00 0.00 84 1013.0
20220809101215 78 109 0.0 0.0 0.00 0.00 0.00 84 1013.0
20220809100705 78 109 0.0 0.0 0.00 0.00 0.00 84 1013.0
20220809100155 78 109 0.0 0.0 0.00 0.00 0.00 84 1013.0
20220809095644 78 109 0.0 0.0 0.00 0.00 0.00 84 1012.9
20220809095136 78 109 0.0 0.0 0.00 0.00 0.00 84 1013.0
20220809094625 78 109 0.0 0.0 0.00 0.00 0.00 84 1012.9
20220809094115 78 109 0.0 0.0 0.00 0.00 0.00 84 1012.9
20220809093605 79 109 0.0 0.0 0.00 0.00 0.00 84 1012.9
20220809093056 79 109 0.0 0.0 0.00 0.00 0.00 84 1012.9
20220809092546 79 109 0.0 0.0 0.00 0.00 0.00 84 1012.9
20220809092036 79 109 0.0 0.0 0.00 0.00 0.00 84 1013.0
20220809091527 79 109 0.0 0.0 0.00 0.00 0.00 84 1013.0
20220809091026 79 109 0.0 0.0 0.00 0.00 0.00 84 1013.1